[[{"header":{"parameterUnit":"m.s-1","parameterCategory":1,"la1":30.2991,"la2":30.254,"lo1":-89.0895,"lo2":-89.0444,"dy":0.0017,"dx":0.0017,"nx":28,"ny":28,"refTime":"2025-01-26T09:00:00:Z","depth":0,"parameterNumber":2,"parameterNumberName":"U-component_of_WINDS"},"data":[0,0,0,0,0,0,0,0,0,0,0,0,0,0,0,0,0,0,0,0,0,0,0,0,0,0,0,0,0,0,0,0,0,0,0,0,0,0,0,0,0,0,0,0,0,0,0,0,0,0,0,0,0,0,0,0,0,0,-2.703,-2.7031,0,-2.7082,-2.7083,-2.7083,-2.7056,-2.7054,-2.7053,-2.7051,-2.7107,-2.711,-2.7112,0,0,0,0,0,0,0,0,0,0,0,0,0,-2.691,-2.6912,-2.703,-2.7031,-2.7032,-2.7082,-2.7083,-2.7084,-2.7056,-2.7054,-2.7052,-2.7051,-2.7106,-2.7109,-2.7113,0,0,0,0,0,0,0,0,0,0,0,0,0,-2.6962,-2.6913,-2.703,-2.7024,-2.7024,-2.7082,-2.7083,-2.7084,-2.7056,-2.7054,-2.7052,-2.705,-2.7105,-2.7109,-2.7113,-2.7181,0,0,-2.7126,-2.7128,0,0,0,0,0,0,0,0,-2.6959,-2.6967,-2.7024,-2.7024,-2.7024,-2.706,-2.7061,-2.7117,-2.7057,-2.7044,-2.7051,-2.7049,-2.7093,-2.7098,-2.7113,-2.7184,-2.7186,-2.7126,-2.7129,-2.7131,-2.7132,0,0,0,0,0,0,0,-2.6956,-2.6964,-2.7051,-2.7025,-2.7025,-2.7019,-2.7024,-2.7071,-2.708,-2.7045,-2.7043,-2.7049,-2.7093,-2.7109,-2.7114,-2.7187,-2.7126,-2.713,-2.7132,-2.7134,-2.7317,-2.7319,0,0,0,0,0,0,-2.6952,-2.6961,-2.7049,-2.7052,-2.6986,-2.7023,-2.7029,-2.7051,-2.7079,-2.7082,-2.7051,-2.7048,-2.7103,-2.7109,-2.7116,-2.7197,-2.7131,-2.7134,-2.7137,-2.7315,-2.7318,-2.732,0,0,0,0,0,0,-2.6949,-2.696,-2.7047,-2.7006,-2.7017,-2.7027,-2.7053,-2.7053,-2.7069,-2.7084,-2.7086,-2.7065,-2.7101,-2.711,-2.7165,-2.7198,-2.7136,-2.714,-2.7312,-2.7316,-2.7319,-2.736,0,0,0,0,0,0,-2.6946,-2.6959,-2.6984,-2.7007,-2.7019,-2.7095,-2.7055,-2.7056,-2.7076,-2.7072,-2.7098,-2.71,-2.71,-2.7159,-2.7169,-2.7203,-2.7143,-2.7309,-2.7314,-2.7318,-2.7356,-2.7365,-2.7372,0,0,0,0,0,-2.6942,-2.6995,-2.6986,-2.6997,-2.7051,-2.7097,-2.7104,-2.7102,-2.7079,-2.7104,-2.7114,-2.7099,-2.7194,-2.7165,-2.7176,-2.7212,-2.7307,-2.7312,-2.7318,-2.7352,-2.7363,-2.7372,0,0,0,0,0,0,-2.6976,-2.6997,-2.6988,-2.7049,-2.7071,-2.7092,-2.7124,-2.7114,-2.7143,-2.7139,-2.7136,-2.7142,-2.72,-2.7212,-2.7179,-2.728,-2.7247,-2.7255,-2.7269,-2.728,-2.7288,-2.7283,-2.7147,0,0,0,0,0,-2.6991,-2.7025,-2.7042,-2.7095,-2.7107,-2.7114,-2.7134,-2.7131,-2.7154,-2.7163,-2.7177,-2.7201,-2.7236,-2.7259,-2.7292,-2.7358,-2.7363,-2.7389,-2.7397,-2.7403,-2.741,-2.7446,-2.7457,-2.7338,-2.7338,-2.7338,0,0,-2.7021,-2.7037,-2.7059,-2.7102,-2.7119,-2.7156,-2.7122,-2.7162,-2.7189,-2.7169,-2.7222,-2.7233,-2.726,-2.7321,-2.7349,-2.7333,-2.7444,-2.741,-2.7415,-2.7418,-2.7452,-2.7464,-2.7474,-2.7341,-2.7341,-2.734,0,0,-2.7095,-2.7111,-2.7156,-2.7174,-2.7199,-2.7204,-2.7215,-2.7238,-2.7244,-2.7297,-2.7283,-2.7316,-2.7376,-2.7396,-2.7413,-2.7496,-2.7484,-2.7508,-2.755,-2.7585,-2.7594,-2.7603,-2.7632,-2.7642,-2.7514,-2.7514,-2.7514,0,-2.713,-2.7184,-2.7181,-2.7222,-2.7242,-2.7225,-2.7272,-2.7289,-2.7325,-2.7339,-2.7321,-2.7396,-2.7413,-2.7478,-2.7498,-2.7514,-2.7526,-2.7504,-2.7593,-2.7601,-2.7609,-2.7637,-2.7648,-2.7517,-2.7517,-2.7516,-2.7516,0,-2.7225,-2.7263,-2.7296,-2.733,-2.7354,-2.7397,-2.7402,-2.7427,-2.7422,-2.7429,-2.7484,-2.7503,-2.754,-2.7556,-2.7552,-2.7621,-2.761,-2.7593,-2.7559,-2.7623,-2.7649,-2.766,-2.7521,-2.752,-2.7519,-2.7518,0,0,-2.732,-2.7352,-2.7365,-2.738,-2.7408,-2.7437,-2.7481,-2.7516,-2.7537,-2.7563,-2.7599,-2.7652,-2.7636,-2.7656,-2.7654,-2.7686,-2.775,-2.7664,-2.7665,-2.7679,-2.7827,-2.7838,-2.7851,-2.7742,-2.7744,-2.7746,-2.7824,0,-2.7395,-2.7469,-2.7469,-2.7538,-2.7573,-2.7559,-2.7597,-2.7619,-2.7627,-2.7659,-2.7669,-2.7705,-2.7682,-2.7694,-2.7724,-2.7735,-2.7779,-2.773,-2.7776,-2.7778,-2.7768,-2.7864,-2.7877,-2.7949,-2.7834,-2.7836,-2.7837,0,-2.7492,-2.752,-2.7592,-2.7615,-2.763,-2.7664,-2.7696,-2.7727,-2.7752,-2.7756,-2.7779,-2.7773,-2.7818,-2.7785,-2.7848,-2.7814,-2.7834,-2.7842,-2.7845,-2.7848,-2.781,-2.7869,-2.7973,-2.7983,-2.7853,-2.7852,-2.7851,0,-2.7552,-2.7609,-2.7659,-2.7673,-2.7701,-2.7726,-2.7739,-2.7762,-2.7783,-2.7812,-2.7826,-2.7861,-2.788,-2.7907,-2.7911,-2.7886,-2.7974,-2.7941,-2.7978,-2.7978,-2.7996,-2.7994,-2.8103,-2.8011,-2.8011,-2.801,-2.801,0,-2.7635,-2.768,-2.7687,-2.7718,-2.7768,-2.7768,-2.7818,-2.7829,-2.785,-2.7884,-2.7875,-2.7907,-2.7911,-2.7944,-2.7948,-2.7999,-2.8008,-2.8013,-2.8013,-2.8012,-2.8012,-2.8024,-2.8018,-2.8013,-2.8013,-2.8012,-2.8012,0,-2.771,-2.7717,-2.7771,-2.7794,-2.7801,-2.7837,-2.7856,-2.7887,-2.7894,-2.7937,-2.7947,-2.796,-2.7999,-2.8006,-2.8052,-2.8055,-2.8116,-2.8112,-2.8107,-2.8106,-2.8142,-2.8138,-2.8261,-2.8277,-2.8176,-2.8177,-2.8178,0,-2.7762,-2.7796,-2.7822,-2.7844,-2.7858,-2.7893,-2.7915,-2.7917,-2.794,-2.7972,-2.7998,-2.8036,-2.8066,-2.813,-2.8143,-2.8179,-2.8175,-2.8216,-2.818,-2.8179,-2.8174,-2.8171,-2.8175,-2.8222,-2.8223,-2.8224,-2.8224,0,-2.7852,-2.7854,-2.7885,-2.7918,-2.7944,-2.797,-2.7995,-2.8014,-2.8019,-2.8046,-2.8085,-2.8109,-2.8156,-2.8194,-2.823,-2.8244,-2.8236,-2.8236,-2.8246,-2.8245,-2.8241,-2.8243,-2.8124,-2.8233,-2.8232,-2.8231,-2.8231,-2.823,-2.7917,-2.7946,-2.7969,-2.8004,-2.8023,-2.8047,-2.8076,-2.8088,-2.812,-2.8158,-2.8158,-2.8201,-2.8227,-2.8273,-2.8291,-2.8325,-2.8312,-2.8327,-2.8331,-2.8334,-2.8337,-2.8237,-2.8332,-2.8331,-2.8331,-2.8331,-2.8331,0,-2.8005,-2.802,-2.8052,-2.8087,-2.8115,-2.8105,-2.8132,-2.8156,-2.8194,-2.8218,-2.8248,-2.8293,-2.833,-2.8348,-2.8384,-2.8409,-2.8406,-2.8418,-2.8415,-2.8419,-2.8347,-2.8334,-2.842,-2.842,-2.842,-2.842,-2.842,-2.842,-2.8055,-2.8104,-2.8109,-2.8168,-2.8182,-2.8223,-2.824,-2.8262,-2.8281,-2.8332,-2.8362,-2.8373,-2.8395,-2.8433,-2.8467,-2.8471,-2.8485,-2.8499,-2.8501,-2.8433,-2.8424,-2.8415,-2.8403,-2.8502,-2.8502,-2.857,-2.8571,-2.8571]},{"header":{"parameterUnit":"m.s-1","parameterCategory":1,"la1":30.2991,"la2":30.254,"lo1":-89.0895,"lo2":-89.0444,"dy":0.0017,"dx":0.0017,"nx":28,"ny":28,"refTime":"2025-01-26T09:00:00:Z","depth":0,"parameterNumber":3,"parameterNumberName":"V-component_of_WINDS"},"data":[0,0,0,0,0,0,0,0,0,0,0,0,0,0,0,0,0,0,0,0,0,0,0,0,0,0,0,0,0,0,0,0,0,0,0,0,0,0,0,0,0,0,0,0,0,0,0,0,0,0,0,0,0,0,0,0,0,0,2.4476,2.4477,0,2.4529,2.453,2.453,2.4533,2.4533,2.4532,2.4532,2.4585,2.4587,2.4589,0,0,0,0,0,0,0,0,0,0,0,0,0,2.4377,2.4378,2.4476,2.4477,2.4477,2.4529,2.453,2.4531,2.4534,2.4533,2.4532,2.4531,2.4585,2.4587,2.4589,0,0,0,0,0,0,0,0,0,0,0,0,0,2.4424,2.4379,2.4476,2.4485,2.4486,2.4529,2.453,2.4531,2.4534,2.4533,2.4532,2.4531,2.4584,2.4587,2.459,2.4627,0,0,2.4599,2.46,0,0,0,0,0,0,0,0,2.4421,2.4427,2.4483,2.4484,2.4486,2.4524,2.4515,2.4563,2.4534,2.4516,2.4532,2.4531,2.4565,2.457,2.4582,2.4629,2.4631,2.4599,2.4601,2.4602,2.4603,0,0,0,0,0,0,0,2.4418,2.4425,2.4497,2.4484,2.4486,2.4486,2.4492,2.4524,2.4545,2.4517,2.4518,2.4524,2.4566,2.4579,2.4583,2.4632,2.4599,2.4602,2.4604,2.4605,2.4715,2.4716,0,0,0,0,0,0,2.4413,2.4422,2.4495,2.4499,2.4451,2.4489,2.4495,2.4513,2.4545,2.4549,2.4525,2.4524,2.4574,2.458,2.4585,2.4632,2.4602,2.4605,2.4607,2.4713,2.4715,2.4716,0,0,0,0,0,0,2.4411,2.4419,2.4493,2.4461,2.447,2.4492,2.4511,2.4514,2.4527,2.455,2.4554,2.4534,2.4574,2.4581,2.4617,2.4634,2.4606,2.4609,2.4712,2.4714,2.4715,2.4726,0,0,0,0,0,0,2.4408,2.4418,2.4433,2.4461,2.4472,2.4524,2.4512,2.4516,2.4532,2.4532,2.456,2.4564,2.4574,2.4612,2.462,2.4638,2.4611,2.4711,2.4713,2.4715,2.4724,2.4728,2.4731,0,0,0,0,0,2.4404,2.4433,2.4433,2.4442,2.449,2.4525,2.4531,2.4542,2.4534,2.4548,2.4564,2.4563,2.4631,2.4616,2.4624,2.4644,2.471,2.4712,2.4715,2.4723,2.4727,2.4731,0,0,0,0,0,0,2.4405,2.4437,2.4438,2.4476,2.4498,2.4525,2.4544,2.4546,2.4571,2.4569,2.4581,2.4588,2.4624,2.4637,2.462,2.4682,2.4669,2.4674,2.4672,2.4677,2.468,2.4677,2.4614,0,0,0,0,0,2.441,2.4436,2.4462,2.4493,2.4504,2.4522,2.4538,2.4545,2.4568,2.4577,2.4594,2.4617,2.4643,2.466,2.4686,2.4726,2.4733,2.4743,2.4746,2.4749,2.4753,2.4777,2.4783,2.4724,2.4724,2.4724,0,0,2.442,2.444,2.4456,2.4494,2.4512,2.4539,2.453,2.4558,2.4579,2.4581,2.4617,2.4631,2.4656,2.4695,2.4713,2.4707,2.4771,2.4752,2.4754,2.4757,2.478,2.4786,2.4791,2.4726,2.4726,2.4725,0,0,2.4452,2.447,2.4499,2.4517,2.4545,2.4557,2.4564,2.4591,2.4601,2.4637,2.464,2.4664,2.4709,2.4728,2.4743,2.4784,2.4786,2.4792,2.481,2.4834,2.4838,2.4843,2.4859,2.4865,2.4796,2.4796,2.4796,0,2.4461,2.4503,2.4514,2.4543,2.456,2.4564,2.4595,2.4611,2.4645,2.4658,2.465,2.4708,2.4726,2.477,2.478,2.4792,2.4801,2.479,2.4837,2.4841,2.4845,2.4861,2.4867,2.4797,2.4796,2.4796,2.4796,0,2.4513,2.4542,2.4562,2.4596,2.4616,2.4645,2.4661,2.468,2.4685,2.4698,2.4735,2.4756,2.4787,2.4798,2.4802,2.4843,2.4839,2.4834,2.4822,2.4851,2.4867,2.4873,2.4798,2.4797,2.4797,2.4797,0,0,2.4548,2.4589,2.4597,2.4613,2.4644,2.4666,2.4696,2.4727,2.4744,2.4767,2.4794,2.4832,2.4828,2.4846,2.4853,2.4873,2.4907,2.4866,2.4867,2.4875,2.4956,2.4961,2.4968,2.4907,2.4908,2.4909,2.4954,0,2.4586,2.4641,2.4652,2.4699,2.4727,2.4731,2.4757,2.4779,2.4792,2.4818,2.4832,2.486,2.4851,2.4863,2.4883,2.4899,2.4924,2.4895,2.4933,2.4935,2.4929,2.4976,2.4981,2.5022,2.496,2.4961,2.4962,0,2.4637,2.4664,2.4714,2.4743,2.4755,2.4779,2.4809,2.4833,2.4858,2.4866,2.4887,2.4892,2.4924,2.4909,2.4954,2.4934,2.495,2.4961,2.4963,2.4968,2.4951,2.4984,2.5035,2.5043,2.4971,2.4971,2.497,0,2.4661,2.4708,2.4745,2.4759,2.4793,2.481,2.4825,2.4849,2.4868,2.4894,2.4906,2.4935,2.4952,2.4974,2.4988,2.4975,2.5033,2.5018,2.5041,2.5041,2.5055,2.5054,2.5111,2.5062,2.5061,2.5061,2.5061,0,2.4703,2.4734,2.4757,2.478,2.4815,2.4828,2.4862,2.4877,2.4899,2.4925,2.493,2.4954,2.4969,2.4996,2.5006,2.5043,2.505,2.5058,2.5061,2.5059,2.5058,2.5071,2.507,2.5063,2.5063,2.5062,2.5062,0,2.4736,2.4752,2.4793,2.4822,2.4831,2.4856,2.4881,2.4904,2.4917,2.495,2.4958,2.4979,2.5011,2.5026,2.5065,2.5072,2.5115,2.5115,2.5107,2.5108,2.5132,2.513,2.5201,2.5212,2.5153,2.5153,2.5154,0,2.4763,2.4787,2.482,2.4838,2.4854,2.4883,2.4902,2.4916,2.4936,2.4967,2.4987,2.5019,2.5046,2.5096,2.5115,2.5145,2.5147,2.517,2.5152,2.515,2.515,2.515,2.5153,2.5174,2.5174,2.5175,2.5175,0,2.481,2.4817,2.4845,2.4876,2.4899,2.4924,2.4949,2.4963,2.4981,2.5003,2.5036,2.5057,2.5098,2.513,2.5162,2.5178,2.518,2.518,2.5188,2.5187,2.5183,2.5188,2.5118,2.5179,2.5179,2.5178,2.5178,2.5178,2.4842,2.4865,2.4892,2.4924,2.4944,2.4967,2.499,2.5007,2.5035,2.507,2.5076,2.5112,2.5138,2.5181,2.5198,2.5226,2.5221,2.5231,2.5234,2.5237,2.524,2.5177,2.5232,2.5232,2.5231,2.5231,2.5231,0,2.4892,2.4909,2.4938,2.4973,2.4998,2.4998,2.5025,2.5047,2.5078,2.5103,2.5129,2.5168,2.52,2.5222,2.5254,2.5273,2.5275,2.5281,2.5281,2.5285,2.5241,2.5233,2.5279,2.5279,2.5279,2.5279,2.5279,2.5279,2.492,2.496,2.497,2.502,2.5037,2.5073,2.5089,2.5111,2.5131,2.5175,2.5201,2.5215,2.5239,2.5273,2.5303,2.5308,2.5321,2.5328,2.5334,2.5293,2.5288,2.5283,2.5275,2.533,2.533,2.5376,2.5376,2.5376]}]]